Flag for Slovenia Weather past 2 weeks in Maribor, Slovenia

Now
31 °F

Chilly.


Feels Like: 31 °F
Forecast: 42 / 61 °F
Wind: 1 mph from East

Location: Maribor / Slivnica

Current Time: Mar 29, 2015 at 5:38:18 AM

Latest Report: Mar 29, 2015 at 4:00 AM


Visibility: 6 mi

Pressure: 30.03 "Hg

Humidity: 86%

Dew point: 28 °F

Location of MariborLocation

Historic Weather in Maribor — Graph

°F

Maribor temperature yesterday

Maximum temperature yesterday: 55 °F (at 4:00 PM)
Minimum temperature yesterday: 38 °F (at 11:00 PM)
Average temperature yesterday: 48 °F

Past Weeks' High & Low Weather Summary

 TemperatureHumidityPressure
High62 °F (Mar 26, 2:00 PM)96% (Mar 18, 3:00 AM)30.52 "Hg (Mar 18, 3:00 AM)
Low28 °F (Mar 21, 6:00 AM)19% (Mar 20, 3:00 PM)29.71 "Hg (Mar 25, 9:00 PM)
Average44 °F68%30.14 "Hg
* Reported Mar 14 3:00 AM — Mar 29 4:00 AM, Maribor, Weather by CustomWeather, © 2015

Note: Actual official high and low records may vary slightly from our data, if they occured in-between our weather recording intervals... More about our weather records

Advertising

Maribor weather history for previous 24 hours

 ConditionsComfort  
Time TempWeatherWind HumidityBarometerVisibility
4:00 AM
Sun, Mar 29
31 °FChilly.1 mph86%30.03 "Hg6 mi
3:00 AM35 °FChilly.1 mph79%30.04 "Hg11 mi
1:00 AM35 °FChilly.1 mph78%30.05 "Hg9 mi
12:00 AM36 °FChilly.1 mph76%30.06 "Hg9 mi
11:00 PM
Sat, Mar 28
38 °FChilly.1 mph70%30.06 "Hg10 mi
9:00 PM40 °FClear.2 mph69%30.07 "Hg19 mi
8:00 PM46 °FClear.2 mph53%30.06 "Hg19 mi
7:00 PM49 °FClear.2 mph47%30.05 "Hg19 mi
6:00 PM51 °FPassing clouds.3 mph38%30.02 "Hg19 mi
5:00 PM54 °FPassing clouds.5 mph36%30.00 "Hg19 mi
4:00 PM55 °FScattered clouds.5 mph35%30.00 "Hg19 mi
2:00 PM54 °FPartly sunny.6 mph35%30.02 "Hg19 mi
1:00 PM54 °FPartly sunny.7 mph38%30.03 "Hg43 mi
12:00 PM54 °FScattered clouds.8 mph35%30.04 "Hg43 mi
11:00 AM53 °FScattered clouds.7 mph37%30.06 "Hg43 mi
10:00 AM51 °FPartly sunny.7 mph39%30.07 "Hg43 mi
9:00 AM51 °FPassing clouds.7 mph43%30.08 "Hg43 mi
8:00 AM48 °FPassing clouds.5 mph52%30.08 "Hg43 mi
7:00 AM45 °FScattered clouds.3 mph58%30.08 "Hg43 mi
6:00 AM43 °FScattered clouds.5 mph59%30.07 "Hg37 mi
5:00 AM44 °FQuite cool.6 mph54%30.05 "Hg28 mi
Weather by CustomWeather, © 2015

See weather overviewHow to use our weather pages